Location: *
(39.6167°N, 8.4667°E)
Time: 12:54:22
(UTC+00:00)

Daily predictions for brighter satellites

Satellite Brightness Start Highest point End
(mag) Time Altitude Azimuth Time Altitude Azimuth Time Altitude Azimuth
Cosmos 1624 Rocket 4.1 19:25:02 10° S 19:30:16 63° ESE 19:35:30 10° NNE
Cosmos 1733 3.2 19:26:35 10° N 19:30:28 83° E 19:34:18 10° S
Cosmos 2263 Rocket 3.0 19:25:10 10° N 19:30:29 38° ENE 19:35:46 10° SE
Cosmos 2297 Rocket 4.2 19:26:56 10° NW 19:31:34 26° WSW 19:36:11 10° SSW
Cosmos 1726 3.7 19:29:27 10° NNE 19:32:06 19° ENE 19:34:44 10° ESE
Cosmos 1140 Rocket 3.7 19:27:18 10° NNW 19:32:31 60° ENE 19:37:40 10° SSE
IGS 5A 4.4 19:30:01 10° SE 19:33:44 33° ENE 19:37:29 10° N
Cosmos 1300 Rocket 3.6 19:29:30 10° N 19:33:49 85° W 19:38:08 10° S
Cosmos 2227 Rocket 3.8 19:30:05 10° NW 19:35:05 33° WSW 19:40:04 10° SSW
Cosmos 1707 4.2 19:32:37 10° SE 19:35:32 21° E 19:38:28 10° NE
Cosmos 1674 Rocket 3.8 19:31:38 10° SSE 19:35:54 50° E 19:40:10 10° NNE
MOS 1 4.3 19:32:19 10° SSE 19:38:00 81° ENE 19:43:45 10° NNW
Sich 1 Rocket 4.0 19:35:46 10° NNW 19:40:08 66° W 19:44:28 10° S
SL-24 DEB 4.3 19:37:19 10° SSE 19:42:01 78° E 19:46:47 10° N
Cosmos 1400 Rocket 2.7 19:38:11 10° N 19:42:04 82° E 19:45:55 10° S
Cosmos 1934 Rocket 4.0 19:40:49 10° N 19:46:56 77° E 19:53:06 10° S
ATLAS 2A CENTAUR R/B 4.4 19:35:41 10° SW 19:47:48 19° S 19:52:57 11° SE
OBJECT-B 2.9 19:49:38 10° SSW 19:52:21 25° W 19:55:05 10° NW
Cosmos 1452 Rocket 4.3 19:49:50 10° SSE 19:54:30 33° E 19:59:10 10° NE
Cosmos 2056 Rocket 3.8 19:54:23 10° SSW 19:59:31 72° WNW 20:04:48 10° NNE
SPOT 1/Viking Rocket 4.2 19:55:37 13° SE 19:59:51 41° ENE 20:04:39 10° N
Cosmos 1727 Rocket 4.4 20:00:28 10° SSE 20:06:28 47° E 20:12:27 10° NNE
SPOT 5 4.4 20:04:45 13° ESE 20:08:03 23° ENE 20:11:57 10° NNE
Cosmos 1842 4.0 20:04:28 10° SSW 20:08:18 55° W 20:12:12 10° N
Cosmos 407 Rocket 4.1 20:04:38 10° NNW 20:09:49 55° WSW 20:14:55 10° S
Cosmos 292 Rocket 3.8 20:05:49 10° S 20:10:35 63° ESE 20:15:22 10° NNE
NOSS 3-2 (C) 3.4 20:05:16 10° SW 20:10:45 82° NW 20:17:02 10° NNE
NOSS 3-2 (A) 4.4 20:05:43 10° WSW 20:11:03 48° NW 20:17:10 10° NNE
Okean 1 Rocket 3.0 20:09:37 10° N 20:13:59 71° E 20:17:22 16° SSE
Cosmos 2285 Rocket 4.0 20:07:57 10° SSW 20:14:22 85° ESE 20:20:51 10° NNE
Cosmos 1605 Rocket 4.0 20:09:19 10° N 20:15:46 82° E 20:21:42 12° S
Cosmos 1626 4.1 20:15:42 13° E 20:15:59 13° E 20:17:44 10° ENE
SL-16 R/B 2.1 20:11:23 10° SSW 20:17:01 76° ESE 20:22:41 10° NNE
Cosmos 1455 Rocket 4.5 20:14:27 10° NNE 20:18:05 24° ENE 20:20:03 18° ESE
Spot 2 Rocket 4.1 20:15:04 18° SE 20:18:24 42° ENE 20:23:10 10° N
Cosmos 1420 Rocket 4.2 20:14:05 10° SSW 20:19:15 74° WNW 20:24:28 10° NNE
Meteor 1-21 4.2 20:14:21 10° S 20:20:02 89° W 20:25:42 10° N
Cosmos 2360 Rocket 2.9 20:16:10 14° SSE 20:20:14 34° ESE 20:25:16 10° NE
ATLAS 3B R/B 3.8 20:18:38 18° SE 20:20:30 20° ESE 20:25:03 10° ENE
Cosmos 2322 Rocket 2.2 20:15:02 10° S 20:20:38 62° ESE 20:26:16 10° NNE
Cosmos 1190 Rocket 4.5 20:15:43 10° NNW 20:20:56 60° WSW 20:25:39 13° S
Cosmos 1378 Rocket 4.3 20:18:36 10° SSW 20:22:49 53° W 20:27:07 10° N
Lacrosse 5 2.4 20:19:49 10° NW 20:24:47 52° NE 20:28:12 19° ESE
Terra 3.4 20:22:54 16° ESE 20:25:15 22° ENE 20:28:52 10° NNE
Cosmos 2227 4.2 20:20:16 10° NNW 20:25:55 88° WSW 20:29:56 20° SSE
Genesis I 3.7 20:23:00 10° SW 20:26:47 60° NW 20:30:40 10° NNE
SPOT 3 Rocket 3.7 20:22:17 14° S 20:26:48 74° WSW 20:32:00 10° NNW
Cosmos 1470 2.9 20:23:30 10° N 20:27:29 76° W 20:30:19 18° S
ERS-1 Rocket 3.9 20:24:47 20° ESE 20:27:33 34° ENE 20:32:05 10° N
FALCON 9 DEB 3.2 20:25:37 10° SSW 20:28:56 48° SE 20:32:14 10° ENE
Meteor 2-20 4.4 20:23:38 10° S 20:29:44 88° W 20:35:52 10° N
Cosmos 1315 Rocket 2.9 20:28:25 10° N 20:32:34 83° W 20:35:11 22° S
Cosmos 2237 4.2 20:31:10 10° S 20:36:45 60° ESE 20:42:21 10° NNE
Cosmos 1674 2.7 20:41:15 34° SSE 20:42:32 54° E 20:46:10 10° NNE
Resurs 01 Rocket 2.9 20:40:15 11° SSW 20:44:09 35° W 20:48:13 10° NNW
USA 215 3.5 20:39:23 10° ENE 20:45:37 45° SE 20:51:50 10° SSW
Cosmos 1459 Rocket 4.2 20:42:21 10° N 20:48:13 51° E 20:51:15 28° SE
Cosmos 1758 3.5 20:46:15 10° NNW 20:50:12 65° W 20:52:12 27° S
USA 245 4.1 20:53:09 25° S 20:55:40 64° W 21:00:58 10° NNW
CARTOSAT-1 3.5 20:54:22 33° SSE 20:56:15 88° WSW 21:00:35 10° NNW
Cosmos 1025 Rocket 3.3 20:57:16 38° SE 20:58:28 50° E 21:02:42 10° NNE
Lacrosse 5 rocket 1.7 20:59:59 37° E 20:59:59 37° E 21:02:36 10° NE
USA 81 4.4 20:54:43 10° NNW 20:59:55 61° W 21:03:28 20° SSW
CENTAUR R/B 4.2 20:56:28 10° WSW 21:01:51 35° NW 21:08:11 10° NNE
Cosmos 1844 Rocket 3.3 20:56:33 10° N 21:01:59 45° ENE 21:04:27 29° ESE
Cosmos 1975 Rocket 3.2 21:01:49 24° SSW 21:04:22 69° W 21:08:44 10° N
Cosmos 1726 4.2 21:04:19 10° NW 21:07:10 22° W 21:09:27 13° SW
Cosmos 1908 3.2 21:03:19 10° N 21:07:12 69° E 21:07:53 55° SE
Cosmos 1340 3.3 21:11:35 39° E 21:11:35 39° E 21:14:53 10° NNE
Cosmos 2123 Rocket 4.2 21:08:52 33° SSE 21:11:34 56° E 21:17:43 10° NNE
Meteor 2-11 Rocket 4.4 21:07:24 10° N 21:13:31 72° E 21:16:09 36° SSE
Cosmos 2333 4.4 21:12:00 35° SSE 21:14:09 54° ESE 21:19:43 10° NNE
Cosmos 2263 Rocket 3.7 21:09:23 10° NW 21:14:13 29° WSW 21:17:47 16° SSW
Cosmos 1110 Rocket 3.9 21:12:43 25° SSW 21:15:46 90° ESE 21:21:00 10° NNE
Cosmos 1953 2.4 21:15:02 10° NNW 21:19:05 73° W 21:20:00 51° SSW
ARIANE 5 R/B 3.3 21:20:28 31° SSW 21:22:09 47° W 21:26:28 10° NNW
Cosmos 2333 Rocket 2.4 21:21:56 40° SSE 21:23:31 52° ESE 21:29:04 10° NNE
Cosmos 2100 Rocket 4.1 21:18:54 10° N 21:25:15 74° W 21:28:26 31° S
Cosmos 1461 3.2 21:21:12 10° NNW 21:25:18 50° NE 21:25:52 46° E
SL-14 R/B 3.2 21:26:32 65° ESE 21:26:44 66° E 21:30:45 10° NNE
Cosmos 405 3.7 21:33:22 10° N 21:36:09 43° NE 21:36:09 43° NE
SL-08 R/B 4.5 21:34:58 10° N 21:41:22 78° E 21:43:28 45° SSE
Meteor 1-24 Rocket 3.7 21:40:46 48° SE 21:41:32 53° E 21:46:46 10° NNE
Aureole 1 Rocket 4.1 21:35:56 10° NNW 21:41:56 83° WSW 21:44:46 40° S
Cosmos 1844 3.6 21:36:56 10° NNW 21:42:32 78° ENE 21:43:57 52° SE
Cosmos 2219 Rocket 2.2 21:41:31 50° SSE 21:42:51 65° ESE 21:48:28 10° NNE
ATLAS CENTAUR R/B 2.8 21:39:36 10° NNW 21:43:31 31° NE 21:44:31 28° ENE
SL-24 R/B 4.2 21:40:17 10° N 21:45:08 84° E 21:45:59 61° S
SPOT 5 3.9 21:43:58 31° SW 21:45:50 42° W 21:50:38 10° NNW
Cosmos 2016 Rocket 3.9 21:43:03 10° N 21:49:09 78° W 21:51:13 44° S
Cosmos 1626 3.4 21:50:10 30° WSW 21:50:50 33° WNW 21:54:13 10° NNW
Cosmos 1544 Rocket 4.0 21:46:30 10° NNW 21:50:51 52° W 21:51:34 47° SW
Cosmos 1900 4.4 21:47:21 10° NNW 21:52:12 62° ENE 21:52:55 55° E
Cosmos 2237 Rocket 3.6 21:57:16 22° E 21:57:16 22° E 22:00:47 10° NE
Cosmos 1725 Rocket 4.0 21:53:37 10° N 21:59:48 75° W 22:01:41 46° SSW
Meteor 2-10 Rocket 3.8 21:56:34 10° N 22:01:28 47° ENE 22:01:54 46° E
Terra 2.7 22:01:47 34° SW 22:02:44 38° W 22:07:10 10° NNW
Cosmos 2360 Rocket 3.7 21:59:07 10° WSW 22:04:10 33° WNW 22:09:16 10° N
BREEZE-M DEB (TANK) 3.5 21:49:40 10° SW 22:04:14 76° SSE 22:08:04 10° ENE
ERS-1 Rocket 4.5 22:04:47 22° SW 22:06:21 26° W 22:10:34 10° NW
Lacrosse 5 3.2 22:03:20 10° WNW 22:07:23 25° WSW 22:07:23 25° WSW
ATLAS 3B R/B 2.8 22:05:45 20° SW 22:10:26 71° NW 22:17:09 10° NNE
COSMOS 2428 2.7 22:13:36 53° SSW 22:15:01 85° WNW 22:20:49 10° NNE
Cosmos 2322 4.3 22:16:36 29° SW 22:19:16 53° WNW 22:24:49 10° NNE
Cosmos 1455 3.9 22:17:05 10° NNE 22:19:32 25° NE 22:19:32 25° NE
ATLAS CENTAUR R/B 3.8 22:21:00 33° E 22:21:00 33° E 22:28:29 10° NE
BREEZE-M DEB (TANK) 4.2 22:18:33 10° WNW 22:21:17 31° N 22:27:08 10° ENE
Cosmos 1346 Rocket 3.3 22:27:17 57° N 22:27:17 57° N 22:30:32 10° N
Cosmos 1300 4.0 22:23:46 10° NNW 22:26:42 33° WNW 22:26:42 33° WNW
USA 215 3.9 22:22:20 10° NE 22:28:39 53° NW 22:34:57 10° WSW
DNEPR-1 R/B 3.7 22:26:30 10° NNW 22:30:15 69° NNW 22:30:15 69° NNW
Cosmos 2278 Rocket 3.0 22:26:18 10° N 22:31:38 40° ENE 22:32:55 35° E
Centaur D AC-28 4.2 22:30:07 39° SSE 22:31:55 42° SSE 23:17:36 10° E
Centaur D AC-28 4.2 22:30:07 39° SSE 22:31:56 42° SSE 23:17:36 10° E
Centaur D AC-28 4.2 22:30:08 39° SSE 22:31:56 42° SSE 23:17:36 10° E
Cosmos 389 Rocket 4.1 22:34:46 10° N 22:36:46 33° N 22:36:46 33° N
Lacrosse 5 rocket 3.6 22:35:36 10° W 22:38:22 20° NW 22:41:07 10° NNE
Spot 4 3.9 22:44:45 73° W 22:44:45 73° W 22:49:22 10° NNW
Cosmos 1844 Rocket 4.1 22:41:03 10° NW 22:45:34 25° WSW 22:46:06 24° WSW
Cosmos 2228 3.7 22:45:16 10° NNW 22:49:02 50° WNW 22:49:02 50° WNW
SL-8 R/B 4.0 22:47:06 10° WNW 22:50:59 58° WNW 22:50:59 58° WNW
Meteor 2-1 Rocket 4.4 22:49:47 10° N 22:55:12 57° ENE 22:55:36 55° E
Cosmos 1486 Rocket 3.9 22:51:20 10° NNW 22:56:26 76° W 22:56:26 76° W
COBE Rocket 3.9 22:59:36 75° W 22:59:36 75° W 23:04:32 10° NNW
USA 267 3.4 22:57:23 38° ESE 23:00:05 72° NE 23:06:36 10° NW
GEOS 3 Rocket 4.1 23:00:45 49° WSW 23:00:45 49° WSW 23:05:38 10° NW
Cosmos 1980 3.6 23:05:29 76° SW 23:05:55 83° WNW 23:11:39 10° NNE
Cosmos 2058 Rocket 3.5 23:02:50 10° N 23:06:34 62° N 23:06:34 62° N
Cosmos 2333 Rocket 4.2 23:03:52 11° WSW 23:08:05 24° NW 23:12:38 10° N
Cosmos 1354 Rocket 4.1 23:03:22 10° NNW 23:08:42 67° ENE 23:08:54 66° E
Cosmos 968 Rocket 4.4 23:09:20 10° NW 23:13:35 36° W 23:13:35 36° W
Cosmos 967 Rocket 4.4 23:07:51 10° NW 23:14:11 68° WSW 23:14:40 66° SW
Cosmos 1891 Rocket 4.4 23:08:20 10° N 23:14:27 74° W 23:15:12 66° SW
GP-B 4.2 23:11:58 10° NNE 23:15:26 36° ENE 23:15:26 36° ENE
Cosmos 1943 Rocket 4.2 23:16:22 10° N 23:20:22 20° NE 23:23:44 12° E
Cosmos 1513 Rocket 4.4 23:14:57 10° NNW 23:20:58 67° W 23:21:36 63° SW
ATLAS CENTAUR R/B 3.4 23:18:30 10° NW 23:20:38 22° WNW 23:20:38 22° WNW
Cosmos 2219 Rocket 4.4 23:23:16 10° W 23:27:17 19° NW 23:31:19 10° N
ALOS 2 3.7 23:28:20 37° WNW 23:28:20 37° WNW 23:31:35 10° NNW
SL-16 R/B 2.5 23:34:21 53° ESE 23:34:21 53° ESE 23:39:44 10° NNE
Cosmos 2237 Rocket 2.8 23:39:03 41° W 23:40:09 47° WNW 23:45:35 10° NNE
Resurs 1-4 Rocket 4.2 23:38:33 10° ENE 23:41:14 14° E 23:41:58 14° E
SJ 16-02 2.8 23:38:36 10° N 23:42:25 28° ENE 23:42:46 28° ENE
USA 229 DEB 4.4 23:42:33 32° ESE 23:42:37 32° ESE 23:48:22 10° NE
USA 229 4.5 23:42:40 32° ESE 23:42:44 32° ESE 23:48:27 10° NE
CZ-2D R/B 4.2 23:43:20 10° ENE 23:46:10 15° E 23:46:50 14° E
NOSS 3-1 (C) 3.3 23:53:39 59° ESE 23:53:39 59° ESE 23:59:15 10° NE
PSLV R/B 4.0 23:50:41 10° N 23:54:21 61° NNW 23:54:21 61° NNW
Cosmos 2369 Rocket 4.4 23:50:56 10° N 23:55:10 21° NE 23:59:22 10° E
